RH
60 60 61 60 59 58 54 51 45 40 43 51 59 66 71 58 28 6 2 4 2 2 3 3 2 3 3 3 3 3 3 3 3 3 3 3 3 4 4 4 4 5 5 5 5 5 5 6 6 6 6 6 6 6 6 6 6 6 6 6 5 5 5 5 5 5 5 5 5 5 5 5 4 4 4 5 5 5 6 6 6 6 6 7 7 7 7 8
63 62 62 61 59 58 56 53 49 43 38 39 48 57 66 73 62 33 8 2 4 3 2 3 3 2 3 3 3 3 3 3 3 3 3 3 3 3 4 4 5 5 5 5 5 5 5 6 6 6 6 6 6 6 7 7 6 6 6 6 5 5 5 5 5 5 5 5 5 5 5 5 5 5 5 5 5 5 6 7 7 7 7 7 7 7 8 8
63 62 61 61 59 58 57 56 53 49 43 37 38 45 55 66 73 66 37 11 2 4 3 2 3 3 2 3 3 3 3 3 3 3 3 3 3 3 3 4 4 4 5 5 5 5 5 5 5 5 5 6 6 6 7 6 6 6 6 6 5 5 5 5 5 5 5 5 5 5 5 5 6 5 6 6 6 6 7 7 7 7 7 7 8 8 8 8
65 62 61 61 59 59 58 56 55 51 47 42 37 36 42 52 64 73 68 44 15 3 4 3 2 3 3 3 3 3 3 3 3 3 3 3 3 3 3 3 3 4 4 4 4 4 4 5 5 5 5 5 6 6 6 6 6 6 6 6 6 5 5 5 5 5 6 6 6 6 6 6 7 6 6 7 7 7 7 7 7 8 7 7 8 8 8 9
64 61 60 60 58 58 58 55 54 50 46 43 42 37 34 39 49 62 72 71 48 18 4 3 4 2 3 3 2 3 3 3 4 4 3 3 3 3 3 3 3 3 4 4 4 4 4 4 4 5 5 5 5 5 6 7 6 7 6 6 6 6 6 6 6 6 6 7 7 7 7 7 8 7 7 7 7 7 7 8 8 8 8 8 7 8 9 9
58 56 54 54 54 54 55 54 51 47 45 43 43 42 37 32 36 48 59 70 70 50 21 5 4 4 3 3 3 3 3 3 4 4 4 3 3 3 3 3 3 3 3 4 4 4 4 4 4 5 5 5 5 5 6 6 6 7 6 6 6 6 6 6 6 6 6 7 8 8 8 8 8 8 8 8 7 7 7 7 7 8 8 8 8 8 9 10
47 45 43 42 43 44 45 46 46 44 44 43 42 42 42 37 32 36 47 58 68 68 50 22 6 4 4 3 3 3 3 3 3 3 3 3 3 3 3 3 3 3 3 4 4 4 4 4 4 4 5 5 5 6 6 6 7 6 6 6 6 7 7 7 7 7 7 7 8 8 8 8 8 8 7 8 7 7 7 7 7 7 7 7 8 8 9 10
30 28 28 29 31 33 35 37 40 44 45 45 45 44 43 41 36 32 35 45 57 66 65 48 21 5 4 4 3 3 3 3 3 3 3 3 3 3 3 3 3 3 3 3 4 4 4 4 4 4 5 5 5 6 6 6 6 6 6 7 7 7 7 7 8 7 7 8 8 8 8 8 7 7 7 7 7 7 7 7 7 7 7 7 7 8 8 9
19 20 22 24 27 30 33 36 39 44 48 49 48 48 46 43 40 36 31 34 45 57 65 63 43 16 4 4 3 3 3 3 3 3 3 3 3 3 3 3 3 3 3 3 4 4 4 4 4 4 5 5 5 6 6 6 6 7 7 7 7 7 8 8 8 8 8 8 8 8 7 7 7 7 7 7 7 7 7 6 7 7 7 7 8 8 8 9
19 21 22 23 26 29 32 34 37 39 43 47 47 47 48 46 42 39 35 29 33 48 59 63 56 33 11 4 4 3 3 3 3 3 3 3 3 3 3 3 3 3 3 3 3 4 4 4 4 4 5 5 5 5 6 6 7 7 7 8 8 8 8 8 8 8 8 7 7 7 7 7 7 7 7 7 6 6 6 6 6 6 7 8 9 9 9 10
25 26 26 27 28 30 33 36 38 40 41 43 46 47 48 49 45 40 36 29 26 38 52 58 58 44 19 5 4 4 3 4 3 3 3 3 4 3 3 3 3 3 4 4 3 4 4 4 4 4 5 5 5 6 6 7 7 8 8 8 8 8 8 8 8 8 7 7 7 7 7 7 7 7 6 6 6 6 6 6 6 6 7 9 10 10 10 10
41 42 43 43 42 43 45 47 47 47 47 45 44 45 46 48 47 41 34 29 25 32 46 54 55 47 25 8 5 4 4 4 3 4 3 3 4 3 4 3 3 4 3 4 4 4 4 4 4 5 5 5 6 7 8 8 8 8 8 8 8 8 8 8 8 8 7 7 7 7 7 7 7 7 6 6 6 6 6 6 6 6 7 9 10 10 9 10
60 62 64 63 63 62 59 57 55 53 51 48 45 44 44 46 47 42 34 27 25 29 41 50 53 48 30 11 5 5 4 4 4 4 3 3 3 3 4 3 3 4 4 4 4 4 4 4 4 5 6 6 8 8 8 8 8 8 8 8 8 8 8 8 8 7 7 7 7 7 6 7 7 6 6 6 6 6 6 6 6 6 7 9 9 10 10 10
69 73 75 76 76 73 68 62 56 50 44 40 38 38 40 43 46 42 33 27 24 27 38 47 50 49 35 15 8 6 4 4 4 4 4 3 4 4 3 4 4 4 4 4 4 4 4 5 5 6 7 8 9 9 9 9 8 8 8 8 8 8 8 8 8 7 7 6 6 6 6 6 6 6 6 6 6 6 5 6 6 7 8 9 9 9 9 9
67 72 75 76 76 75 69 55 46 41 32 28 28 31 35 40 44 40 31 25 23 25 35 45 49 49 38 19 11 7 5 5 4 4 4 4 4 4 4 4 4 4 4 4 4 5 5 6 7 8 9 9 9 9 9 9 9 8 8 8 8 8 8 7 7 7 6 6 5 5 5 5 6 6 5 5 5 5 5 6 6 7 9 9 9 9 8 8
64 69 70 70 71 72 61 48 52 49 30 23 27 32 36 39 40 34 25 21 21 24 33 44 51 51 37 21 14 9 6 6 5 5 4 4 4 4 4 4 4 5 5 5 5 6 6 7 9 10 10 10 9 9 9 9 9 9 8 8 8 8 8 7 7 6 6 5 5 5 5 5 5 5 6 5 5 5 6 7 7 8 9 9 8 8 8 8
64 65 65 65 67 68 62 59 65 53 28 20 25 31 36 36 33 26 20 18 19 24 32 42 52 51 33 19 16 10 6 6 5 5 5 4 5 4 5 5 5 5 5 6 6 7 7 8 9 10 9 9 9 9 9 9 9 9 9 8 8 8 7 7 7 6 6 6 5 5 5 5 5 6 7 6 6 7 8 9 9 9 9 8 8 8 8 9
61 58 57 60 62 62 61 60 53 38 26 23 21 23 27 27 25 21 18 17 19 24 33 45 55 51 31 16 12 8 7 7 5 5 5 4 5 5 5 5 6 6 6 7 7 7 8 8 9 10 10 10 9 10 9 10 10 9 9 9 8 8 7 8 7 7 6 6 6 5 5 5 5 7 8 7 7 8 9 9 9 9 8 8 8 9 10 10
53 47 45 48 52 55 56 54 47 41 36 28 19 17 18 18 18 17 17 18 23 31 43 57 63 54 33 15 9 7 7 8 6 6 5 5 5 5 5 6 6 7 7 8 8 9 9 9 10 10 10 11 10 11 10 10 10 9 9 8 8 8 8 8 7 7 6 6 5 5 5 5 5 8 9 9 9 9 9 9 9 8 8 8 9 11 11 12
59 50 45 43 44 48 50 50 49 45 39 32 25 22 21 21 22 25 26 30 37 47 60 72 74 64 43 21 9 6 7 8 8 7 6 6 5 5 5 5 7 7 8 9 9 9 8 9 10 10 10 11 11 11 11 10 10 9 9 8 8 8 8 8 7 6 6 5 5 5 5 5 7 8 9 10 10 10 9 9 9 8 8 9 11 12 13 16
74 69 64 61 60 61 62 62 62 62 61 58 53 49 48 44 41 43 44 48 55 65 76 83 84 75 56 33 16 8 6 7 7 8 8 7 6 6 6 6 7 8 8 8 8 8 8 9 10 10 10 10 11 10 10 10 9 9 9 8 8 8 7 7 7 6 6 5 5 6 6 7 8 9 9 10 10 10 10 9 9 9 11 11 12 13 15 18
77 77 76 76 77 77 78 79 83 86 88 88 86 85 85 81 76 71 67 69 74 79 86 90 89 82 65 42 21 10 7 6 7 7 7 7 6 6 8 8 8 8 8 8 7 8 8 9 9 9 10 10 11 10 10 10 9 9 8 8 8 7 7 7 7 6 6 6 6 7 7 8 9 9 10 10 10 10 10 10 11 12 13 13 14 16 18 20
56 55 54 56 58 59 62 67 71 77 82 86 88 90 92 94 96 95 92 92 92 92 92 93 91 86 77 59 36 20 12 9 10 11 13 17 21 25 25 23 20 17 14 10 8 8 9 9 10 10 11 11 10 10 9 9 8 8 8 9 8 8 8 7 7 7 7 7 7 8 9 9 9 9 9 10 10 11 11 11 12 13 15 16 18 20 21 24
38 38 39 42 43 44 47 49 52 57 62 65 68 72 75 77 83 87 89 90 92 95 96 97 96 94 91 83 71 58 46 39 36 34 35 38 40 43 42 37 31 25 19 14 10 10 10 11 12 12 11 11 10 9 9 9 9 9 10 9 9 8 8 8 8 8 8 9 9 9 9 9 9 10 10 11 11 12 13 14 15 16 17 19 20 22 23 24
48 48 49 50 50 50 50 49 49 53 55 54 58 66 70 72 74 74 71 70 72 76 80 85 88 89 87 84 81 73 65 57 50 44 40 37 34 31 29 26 23 20 17 15 13 13 14 14 13 12 12 11 11 11 11 11 11 10 10 9 9 9 9 9 9 9 9 9 9 10 10 9 10 11 11 11 13 15 16 16 17 18 18 20 21 22 23 24
56 56 56 56 56 56 55 53 54 57 56 56 61 68 72 73 74 72 68 63 59 56 57 60 65 70 71 72 72 69 64 57 50 44 38 33 30 27 25 24 24 23 22 20 18 17 16 15 14 14 14 13 13 13 12 11 11 10 10 10 10 10 10 10 10 10 9 9 10 11 11 10 12 16 15 13 14 16 17 17 17 18 19 20 21 23 26 28
58 58 59 60 62 62 62 60 61 61 59 61 65 67 67 65 63 62 61 62 59 51 50 52 52 54 55 57 60 61 60 56 52 49 44 40 37 34 33 31 29 27 24 21 19 18 18 18 18 17 15 14 13 12 12 11 11 10 10 10 10 10 10 10 10 10 10 9 11 12 13 11 13 17 18 16 15 16 17 18 19 20 20 22 24 27 31 34
60 62 64 67 69 70 71 70 68 65 63 67 68 66 62 55 49 47 51 60 59 50 49 49 47 46 44 42 41 42 44 44 44 41 39 37 33 30 28 26 25 24 23 23 23 23 23 21 18 16 14 13 12 12 11 11 11 11 10 10 10 10 10 10 10 10 10 10 11 13 13 12 14 17 19 19 19 19 21 21 22 23 24 27 30 34 38 39
65 68 70 72 73 74 72 69 64 61 60 63 64 61 53 45 44 48 54 64 64 59 57 54 48 44 40 36 33 31 30 31 31 30 30 30 29 28 28 28 29 30 30 30 28 26 23 19 16 14 13 12 12 11 11 11 11 11 11 10 10 10 10 10 10 11 11 11 13 15 15 16 18 19 21 23 23 24 26 26 26 27 29 32 35 39 42 44
70 73 75 75 71 62 54 47 42 42 47 52 54 50 45 48 55 58 56 56 57 59 64 65 62 58 53 49 46 43 42 42 42 42 41 41 42 41 40 39 36 32 29 26 23 20 17 15 14 13 12 12 12 12 11 11 11 10 11 11 11 11 11 12 12 13 13 14 16 18 20 22 23 25 26 26 27 28 28 28 28 30 33 36 41 46 48 50
77 78 70 58 43 29 22 18 18 23 31 38 40 43 53 60 55 46 39 35 33 36 43 51 55 57 58 56 53 51 49 47 46 44 41 39 39 37 34 31 26 23 20 18 16 15 14 13 12 12 12 12 12 12 11 11 12 12 13 13 13 14 15 14 15 16 18 20 21 22 24 26 27 27 26 26 30 33 32 31 32 35 39 44 48 52 53 55
77 61 39 22 12 7 6 6 7 13 19 22 29 49 66 57 36 27 24 21 21 21 23 27 29 32 36 37 37 35 33 32 31 30 28 26 25 23 21 18 16 16 15 14 13 12 12 12 12 12 12 12 12 13 14 14 15 15 16 17 17 18 18 18 19 20 21 22 22 22 24 27 27 26 27 32 37 39 38 38 41 45 48 49 52 55 58 62
51 26 13 12 11 8 7 6 6 9 13 22 40 63 70 47 26 24 24 19 18 19 19 19 20 21 23 24 25 25 25 24 24 23 21 19 17 15 14 14 13 13 12 12 12 11 12 12 12 13 13 14 15 15 16 17 17 18 20 22 23 24 23 20 19 19 18 19 19 21 25 28 28 27 30 38 42 43 44 46 49 51 52 55 59 66 74 81
17 12 23 31 28 25 23 22 24 28 36 49 63 75 71 47 30 30 34 29 23 20 18 19 20 20 21 22 22 22 21 19 17 17 15 14 14 13 13 13 12 12 12 12 12 11 12 13 15 15 16 17 18 18 18 19 20 21 23 24 23 24 23 19 18 18 19 20 21 25 29 32 33 33 36 40 44 48 51 54 56 59 64 72 79 87 94 97
17 33 47 50 48 47 47 49 55 60 66 73 76 77 63 40 30 35 39 38 31 24 21 21 20 20 19 19 19 18 18 16 15 15 14 14 14 13 13 13 12 12 12 12 13 12 13 15 16 16 17 18 19 19 19 20 21 20 21 22 21 23 24 24 25 25 27 29 29 33 37 38 41 42 44 49 54 59 63 67 72 78 85 92 97 100 101 101
42 55 59 60 61 61 61 65 69 74 78 78 79 75 54 31 30 37 39 41 37 28 23 22 20 19 18 17 16 16 15 15 14 14 14 14 14 13 13 13 13 14 14 15 15 14 13 13 15 16 18 20 20 20 20 22 23 23 24 26 28 29 31 32 32 33 36 37 36 40 45 46 50 52 54 63 69 73 79 84 90 95 99 101 101 101 101 101
56 57 58 60 63 65 67 70 72 76 77 73 71 65 47 33 34 37 41 44 38 28 23 21 18 17 16 14 15 14 14 14 14 14 15 14 14 14 14 15 15 16 17 16 15 15 12 10 14 18 21 22 22 21 23 25 26 27 28 30 32 33 34 36 37 37 41 42 41 46 53 55 59 63 68 75 83 88 93 98 100 100 100 100 100 100 100 100
53 50 52 54 56 60 63 66 69 71 70 67 65 58 47 42 41 42 44 41 31 24 19 16 14 14 14 14 14 14 14 15 15 15 15 15 16 16 16 17 17 16 16 15 15 16 14 11 13 18 21 21 21 20 21 23 24 25 27 29 32 35 37 40 40 42 45 46 45 49 58 66 72 81 86 89 94 99 101 101 100 99 100 100 100 100 100 99
47 44 43 42 44 48 51 53 56 57 57 57 57 54 50 47 44 41 35 27 19 16 14 13 14 14 14 15 16 16 16 17 17 17 18 17 17 17 17 17 16 16 16 16 17 17 17 15 14 17 20 20 20 20 20 21 22 24 26 28 31 34 38 41 43 48 52 52 52 53 61 74 86 94 98 99 100 101 100 100 100 100 100 100 99 99 100 100
39 33 29 25 25 28 30 32 34 35 35 35 33 33 31 29 27 22 17 14 13 13 14 15 15 15 16 17 18 18 18 19 19 19 18 17 16 16 16 16 17 18 18 17 18 18 18 17 16 18 21 21 22 22 21 22 23 24 26 29 31 33 37 39 42 51 60 61 63 65 64 71 85 94 99 102 101 100 100 100 100 100 100 100 100 100 100 100
29 24 21 17 16 17 17 19 20 20 20 19 18 16 14 13 13 12 12 13 14 15 15 16 16 18 19 19 20 20 20 20 18 17 16 16 17 17 17 18 18 19 19 19 20 20 20 20 20 21 23 25 26 26 25 26 27 28 29 31 34 36 39 41 40 49 63 69 76 83 77 70 79 94 100 101 100 100 101 101 100 100 100 99 99 99 100 100
21 20 18 16 16 15 15 15 15 14 13 13 12 11 12 12 13 14 14 15 16 17 18 19 20 21 19 19 19 18 18 19 18 17 18 18 18 19 19 20 20 20 21 22 23 24 24 24 23 24 26 28 29 28 29 29 30 31 33 34 36 38 41 45 44 47 60 73 87 98 92 81 85 97 101 100 101 101 100 100 99 99 100 101 101 101 100 98
17 16 14 14 14 13 12 11 10 10 10 11 11 13 13 14 15 17 18 19 20 20 21 20 19 17 16 16 16 16 18 19 19 19 19 19 20 21 21 22 23 24 24 25 26 27 27 26 25 24 26 30 32 31 30 30 31 33 35 36 38 41 44 49 52 55 60 71 90 102 99 94 96 99 100 100 101 101 100 101 102 101 100 97 91 84 77 71
14 14 13 12 11 10 10 10 10 11 12 13 14 15 16 17 18 19 19 18 17 16 16 16 16 16 17 17 17 18 18 19 20 20 20 22 22 23 24 26 26 27 28 28 28 28 29 30 28 26 27 29 31 31 30 30 33 36 38 39 40 44 48 50 54 58 59 68 88 102 100 96 97 98 100 102 101 101 100 97 92 85 75 66 58 52 46 41
12 12 12 10 10 11 11 11 12 13 15 16 16 17 17 17 15 14 13 12 12 13 15 16 18 18 19 20 20 20 20 20 21 22 22 23 24 25 27 28 29 29 30 29 29 29 31 33 32 31 32 32 31 31 31 31 33 37 41 43 45 46 49 51 51 56 63 71 85 98 97 94 97 98 95 92 88 85 78 69 61 53 45 41 38 35 31 27
11 10 10 10 11 12 13 14 15 15 15 15 14 13 11 10 10 10 12 14 15 17 18 19 19 19 20 21 21 22 22 22 22 23 24 24 26 27 28 29 30 30 30 31 30 29 31 33 34 34 37 38 35 34 35 35 35 37 40 45 49 49 50 53 53 58 67 70 74 83 85 85 87 84 77 70 64 57 51 45 41 38 36 33 29 25 22 20
10 9 10 12 13 14 15 16 14 12 10 9 8 8 8 10 13 15 17 18 19 18 19 19 19 20 21 21 22 23 23 23 24 24 25 27 28 29 29 30 31 32 31 31 30 30 30 33 34 35 39 41 37 35 38 39 38 38 40 45 49 51 52 54 56 60 65 64 64 69 71 68 66 63 57 52 46 42 39 37 35 33 29 26 22 20 20 19
9 10 12 13 14 14 13 11 8 6 6 7 9 12 14 16 18 18 18 19 19 19 19 19 19 19 20 20 20 21 22 23 24 25 26 28 28 30 32 31 32 32 32 31 31 31 32 34 34 34 39 42 39 38 41 42 42 42 44 47 50 53 54 55 58 61 63 63 62 62 61 58 54 49 44 41 38 37 36 34 31 28 24 22 21 20 20 20
11 13 13 11 10 8 6 5 6 6 9 12 14 16 17 18 18 19 19 19 20 20 19 20 20 19 20 21 20 21 21 21 22 24 26 28 28 29 31 32 31 31 31 31 32 33 33 35 34 30 35 41 40 40 44 45 46 48 49 51 53 54 56 58 61 63 63 63 60 58 56 51 45 41 39 38 38 38 36 33 29 25 22 22 21 22 22 21
11 10 8 6 5 5 5 8 10 12 15 16 16 17 18 18 19 19 19 19 20 20 21 21 21 20 21 22 22 23 23 23 24 24 25 26 28 28 29 31 32 32 33 33 34 35 35 35 33 28 31 38 39 41 47 48 49 53 54 55 56 56 59 63 65 64 62 60 58 56 50 43 40 40 41 42 41 38 35 30 25 23 23 24 24 23 22 21
6 5 5 5 6 8 11 12 14 16 17 16 18 18 18 19 18 19 20 20 20 21 21 22 22 23 23 23 24 25 25 27 27 26 27 27 27 28 29 32 33 33 34 34 35 37 35 33 32 27 27 34 37 39 44 48 53 59 60 59 61 64 66 67 66 64 62 60 57 51 44 40 41 42 42 42 39 35 30 26 24 24 25 25 24 22 21 20
5 6 7 9 11 13 15 16 17 17 17 18 18 18 18 19 18 19 20 20 20 20 20 21 22 22 23 23 23 23 23 24 23 24 27 28 29 32 33 35 35 34 35 37 37 37 33 30 30 27 26 31 35 36 42 49 57 61 63 65 69 71 70 68 66 63 61 56 50 45 42 42 42 40 38 37 34 30 27 26 26 26 25 24 24 24 24 24
Wind_Speed
7 7 6 6 6 6 7 7 6 4 2 2 1 1 2 3 3 2 1 1 1 2 2 2 2 2 2 3 3 3 2 2 2 3 3 4 4 4 4 5 6 6 6 6 6 6 7 7 8 8 9 9 10 9 10 10 11 12 12 13 14 14 14 14 15 15 15 16 17 18 18 19 20 21 22 23 23 24 24 25 26 27 27 28 30 31 32 33
9 8 7 7 7 7 8 8 8 6 4 3 2 2 1 0 1 1 0 1 2 2 3 3 3 2 1 1 2 2 2 3 3 4 4 4 5 5 5 6 7 7 7 8 8 8 8 9 9 10 11 11 12 11 11 12 13 13 14 14 15 16 16 16 16 17 17 18 19 20 20 21 22 22 23 24 25 25 26 26 27 28 29 30 31 33 34 35
10 9 9 9 9 8 9 9 9 8 6 4 4 4 4 3 2 2 2 2 3 4 4 5 6 5 4 3 3 2 3 4 4 5 5 5 6 6 6 7 8 9 10 10 10 10 10 11 11 12 13 13 13 13 13 14 15 15 15 16 17 18 18 18 18 19 19 20 20 21 22 22 23 24 24 24 26 26 27 28 28 29 30 31 33 34 35 36
11 11 11 11 11 10 10 10 10 10 9 7 5 5 5 6 5 4 4 4 4 5 6 6 7 7 7 7 5 4 4 5 5 6 6 7 7 7 8 9 10 11 12 12 12 12 12 12 13 13 14 14 15 15 15 16 16 17 17 18 19 19 20 20 20 20 20 21 21 22 23 23 24 25 25 26 27 28 28 29 30 31 32 33 34 35 36 37
13 13 13 13 13 12 12 12 12 11 10 9 8 6 6 7 8 7 6 6 6 6 7 8 8 9 9 9 8 7 7 6 7 7 7 8 8 9 9 10 11 12 13 13 13 13 13 14 14 14 15 15 16 16 16 17 18 19 19 20 20 21 21 21 22 22 21 21 22 23 23 23 24 26 26 27 28 29 30 31 31 32 33 34 35 36 37 38
15 15 15 15 15 14 14 14 14 13 12 11 10 9 8 8 9 9 9 8 8 7 8 9 10 10 10 10 10 10 9 8 8 8 9 9 9 10 10 11 12 13 14 14 14 14 15 15 15 15 16 16 17 17 18 18 19 20 21 21 22 22 22 22 23 23 23 23 23 23 24 25 25 27 27 29 30 31 32 32 33 34 35 36 37 37 38 38
16 16 16 16 16 16 16 16 16 15 14 13 12 12 11 10 9 10 11 11 10 9 9 9 11 11 12 12 12 11 11 10 10 10 10 10 10 11 11 12 13 14 14 15 15 15 16 16 17 17 17 18 18 18 19 20 21 22 22 23 23 23 23 23 23 24 24 24 24 25 26 26 27 28 29 30 32 33 34 34 35 35 36 38 39 40 40 40
15 15 15 16 16 16 17 17 17 17 16 15 14 14 13 13 12 11 12 13 13 11 10 10 11 12 13 14 14 13 12 12 12 12 12 12 12 12 13 13 14 15 15 16 16 17 17 18 18 18 18 19 19 19 20 21 22 22 23 23 23 23 23 23 24 24 25 25 25 26 27 28 29 30 31 32 34 35 36 36 37 38 39 40 41 42 42 42
14 15 16 16 17 17 18 18 18 18 18 18 17 16 16 15 14 12 12 13 14 13 12 11 12 13 14 15 15 15 14 13 13 13 13 13 13 14 14 15 15 16 17 17 18 18 18 19 19 19 19 19 20 20 21 21 22 23 23 23 23 23 23 24 24 25 26 26 27 28 29 30 32 33 34 35 36 37 37 38 39 40 41 42 43 44 44 44
14 15 17 17 18 18 19 19 19 20 20 20 19 19 18 17 16 15 13 13 14 15 14 13 12 13 15 16 16 16 16 15 15 15 15 15 15 16 16 17 17 17 18 18 19 19 20 20 20 20 20 20 21 21 22 22 22 22 22 22 23 23 24 24 25 26 27 29 29 30 31 33 34 36 36 37 38 39 40 40 41 42 42 43 44 44 45 45
15 16 18 19 19 19 19 19 20 20 21 21 21 20 20 19 18 17 15 14 15 16 16 15 14 14 15 17 18 17 17 17 17 16 16 16 17 17 18 18 18 18 19 19 20 20 21 21 21 21 21 22 22 22 22 22 23 23 22 22 23 24 25 26 27 28 30 31 32 32 33 35 37 38 38 39 40 41 42 42 42 43 44 44 45 46 46 46
14 16 18 18 19 19 19 19 20 20 20 21 22 22 22 21 20 19 17 15 15 16 16 16 15 15 16 17 18 18 18 19 19 19 18 18 18 19 19 20 20 20 20 20 21 21 21 22 22 22 22 22 23 23 23 23 23 23 24 24 24 25 26 28 29 30 32 34 34 35 36 36 38 40 40 41 42 43 44 44 44 45 45 45 47 48 48 48
13 15 16 17 17 18 19 19 20 19 20 20 22 23 23 23 22 21 19 17 16 16 17 17 16 16 16 18 19 19 20 20 20 21 21 20 20 21 21 22 22 21 21 22 22 22 22 23 23 22 23 23 23 23 23 24 24 25 25 26 26 27 28 30 31 33 34 36 37 38 39 37 39 41 42 43 45 45 46 46 46 46 46 47 49 49 49 50
11 13 14 15 15 16 17 18 18 18 18 18 20 22 24 24 23 22 19 17 17 17 17 17 17 17 17 18 19 20 20 21 21 22 22 22 22 22 23 23 23 23 23 23 23 23 23 23 23 23 23 23 23 24 25 25 26 27 28 28 29 29 31 32 33 35 37 38 39 40 41 39 40 42 43 45 47 48 48 47 47 47 47 49 50 51 51 51
11 12 12 12 13 14 14 15 15 16 16 16 17 18 21 22 22 20 18 17 17 17 17 17 18 18 18 19 20 21 21 21 22 23 23 24 24 24 24 24 24 24 24 24 24 24 24 24 24 23 24 24 24 25 26 27 28 29 30 31 31 32 34 35 36 37 39 40 40 41 42 41 42 44 45 46 48 49 49 49 49 49 49 50 51 52 52 52
10 11 11 11 12 12 13 13 14 14 14 14 14 14 16 17 18 17 17 17 17 17 17 18 18 18 19 19 20 21 21 22 22 22 23 24 25 25 25 25 25 24 24 25 25 25 25 24 24 25 25 26 26 28 29 29 30 31 32 33 34 35 36 37 38 39 41 42 42 43 44 43 45 46 46 47 49 49 50 50 50 49 50 51 52 52 52 52
9 10 11 11 11 11 12 13 14 13 13 12 12 12 13 14 15 15 16 17 17 18 18 18 18 19 19 19 20 21 21 22 22 22 23 24 25 26 26 26 25 25 25 25 26 26 26 26 26 26 27 28 29 30 31 31 32 34 35 36 37 38 39 39 40 42 43 44 45 46 46 46 47 47 47 48 49 50 50 50 50 50 51 52 53 53 52 52
7 8 10 10 10 10 11 12 12 12 11 10 10 11 11 12 13 14 15 17 18 18 19 19 19 19 19 20 20 21 21 22 22 22 23 24 25 26 27 26 26 27 27 27 27 27 28 28 28 28 29 30 31 32 33 34 35 36 37 39 40 41 41 42 43 45 45 46 47 48 48 48 48 48 49 50 50 50 50 51 51 51 52 53 54 53 52 52
5 6 6 7 7 9 10 11 11 11 11 10 10 10 11 12 13 14 16 17 17 18 18 18 19 19 20 20 21 21 21 22 22 23 24 25 26 27 27 27 27 28 27 27 28 29 29 29 29 30 30 32 33 34 35 36 37 39 40 41 42 42 42 43 45 46 47 48 48 49 49 50 49 49 50 50 50 51 51 52 52 53 54 54 53 52 52 51
3 4 4 3 3 5 7 9 10 11 10 10 11 11 12 13 13 14 15 16 17 17 18 19 19 19 20 20 21 22 22 23 23 24 24 25 26 27 27 27 28 28 29 29 29 30 31 30 30 31 32 33 35 36 37 38 40 41 42 42 43 44 44 45 47 47 48 49 49 49 50 50 50 50 51 51 51 51 51 52 53 54 54 53 52 52 51 50
2 3 3 3 3 3 4 5 7 8 8 8 9 10 11 13 14 14 15 16 16 17 18 19 19 20 21 21 22 23 23 23 24 24 24 25 26 26 26 27 28 28 29 30 30 31 31 31 32 33 34 35 36 37 39 40 41 42 43 44 44 45 46 47 48 48 49 49 49 50 50 50 50 51 52 52 52 52 52 52 53 53 53 53 53 52 50 49
2 2 3 3 3 3 4 5 6 7 7 8 8 8 9 10 12 13 14 15 16 17 18 19 20 21 22 23 23 23 24 24 24 25 24 25 25 26 26 26 27 28 29 30 31 31 31 32 33 34 35 36 37 38 39 41 42 43 44 45 46 47 47 48 48 49 49 50 50 51 51 51 51 52 52 53 53 53 53 53 53 52 52 52 51 50 49 48
3 4 4 4 5 5 6 6 7 8 8 9 9 9 9 10 11 12 13 15 16 17 18 19 21 22 24 25 25 25 25 24 26 26 27 27 28 29 29 29 29 29 30 31 32 32 32 33 34 35 36 37 38 40 41 41 42 43 45 46 46 48 48 48 48 48 49 50 51 52 52 52 52 53 53 54 54 53 53 53 52 52 51 50 49 48 47 46
4 4 5 5 6 6 7 7 8 8 9 9 10 10 10 10 11 12 14 15 16 18 19 20 22 23 25 25 26 26 26 27 28 29 29 30 30 31 31 31 31 31 31 32 33 33 34 34 35 36 37 38 39 41 42 42 43 44 45 46 47 47 48 48 49 49 49 50 51 52 53 53 53 53 53 54 53 53 53 52 51 50 49 47 47 46 45 44
4 4 5 6 7 8 9 10 11 11 11 12 12 12 12 12 13 13 14 15 17 18 19 20 21 22 23 23 23 24 25 26 27 27 28 29 29 29 29 29 30 31 31 32 33 33 34 35 36 37 38 39 40 41 42 43 43 44 45 46 47 47 48 49 49 49 50 50 50 51 53 54 54 52 53 53 51 50 50 49 48 47 46 45 45 44 43 42
5 6 8 9 10 11 12 13 14 15 15 15 15 15 15 15 15 15 15 16 17 18 18 19 20 20 21 21 21 21 22 23 24 25 26 26 27 28 29 29 30 31 32 32 32 33 34 36 37 38 39 40 41 41 42 43 43 44 45 46 47 47 48 48 49 50 50 50 50 50 52 53 52 50 51 51 49 48 47 46 46 46 45 45 44 43 43 43
8 10 11 12 13 14 15 16 17 18 18 18 18 17 17 17 17 17 17 16 17 17 16 16 16 17 18 18 18 19 20 21 23 23 24 25 26 27 28 30 30 31 31 31 32 33 34 36 37 38 39 40 41 42 42 43 44 44 45 46 47 48 48 48 49 50 50 50 49 48 50 51 49 47 46 46 46 46 46 46 46 46 46 45 45 44 44 44
11 13 14 15 16 17 18 18 19 19 19 19 18 18 17 17 17 18 17 15 15 16 15 13 14 15 15 16 16 17 18 19 21 21 22 23 24 25 26 27 28 29 30 31 32 33 34 36 37 38 39 40 41 42 43 43 44 45 45 46 47 48 48 48 49 49 49 49 47 46 47 47 45 44 44 44 45 45 46 47 47 47 47 46 46 45 45 45
13 15 17 18 19 19 20 21 21 20 19 18 17 17 16 16 16 14 13 12 12 13 14 14 14 14 15 15 15 16 17 18 19 20 21 22 23 24 26 27 28 29 31 32 33 34 35 36 38 39 40 41 41 42 43 43 44 45 45 46 46 46 47 47 47 47 48 48 45 44 45 44 43 43 44 45 46 47 47 47 48 48 48 47 46 46 46 47
15 17 18 20 21 22 22 22 21 20 18 16 15 15 14 14 13 11 10 10 9 10 12 13 14 15 16 17 17 18 19 19 20 22 22 23 24 25 26 27 29 30 31 32 33 34 35 37 38 39 40 40 41 42 42 43 44 44 44 44 44 45 45 46 46 46 47 47 45 44 44 44 44 44 45 47 49 49 48 48 48 48 48 47 47 47 47 47
17 19 20 22 22 22 22 21 19 16 15 13 13 12 12 11 10 9 9 9 9 9 9 10 11 12 13 15 16 18 18 19 19 21 22 23 24 25 26 27 28 29 31 32 33 34 35 37 37 38 39 39 40 41 41 42 43 43 44 44 45 45 46 47 47 46 46 46 45 45 46 46 46 46 47 48 49 48 48 49 49 48 48 47 47 47 48 49
19 21 21 20 20 19 18 16 14 12 11 10 9 9 10 9 8 7 8 9 8 8 9 10 10 11 11 12 14 15 17 18 18 19 21 22 24 25 26 28 29 29 30 31 32 32 33 34 35 36 37 38 39 40 41 42 43 44 44 45 46 47 47 48 47 47 46 46 47 47 48 48 47 48 48 47 46 46 47 48 48 48 48 48 48 48 49 50
20 19 16 15 14 14 13 11 9 8 7 6 6 8 9 6 5 6 8 9 10 10 11 11 11 12 12 13 14 15 16 18 20 20 22 23 25 26 27 28 29 30 31 31 31 31 31 31 33 35 36 37 39 40 42 43 44 45 45 46 46 46 48 48 48 48 48 48 48 48 48 48 48 48 46 45 45 46 46 47 47 48 48 48 49 50 51 52
16 13 11 12 12 12 11 10 9 7 6 6 7 9 8 5 3 5 8 10 12 13 12 13 13 14 14 15 16 17 18 19 20 22 23 24 25 26 27 28 29 30 30 31 32 33 33 33 34 36 38 39 41 42 44 44 45 45 45 45 45 46 48 49 49 49 49 49 48 48 47 47 47 48 48 46 46 46 47 48 48 49 49 49 50 51 52 53
10 9 10 11 11 11 11 10 9 8 8 8 9 10 7 4 3 5 8 11 14 15 15 14 15 15 16 17 17 18 19 20 21 22 23 24 24 25 26 27 28 29 31 32 33 35 35 36 37 39 40 41 41 42 43 44 45 45 45 46 46 46 47 48 49 49 49 49 49 48 48 48 48 50 50 48 48 48 48 49 49 49 50 50 51 51 52 52
8 9 10 10 10 10 9 9 9 9 10 10 10 8 5 4 5 6 8 12 15 16 16 16 16 16 17 18 19 20 20 21 21 21 22 23 24 25 26 27 28 29 31 34 36 38 39 38 38 38 38 39 40 41 42 43 45 46 46 46 47 47 48 48 49 49 49 50 50 48 49 49 49 50 51 49 49 50 50 50 50 50 50 50 51 51 51 52
8 9 10 11 11 10 9 9 9 9 10 10 9 7 4 5 6 8 10 14 15 16 17 17 17 17 17 18 19 20 20 21 22 22 23 24 25 26 27 28 29 31 33 35 37 38 39 37 35 35 36 37 38 40 41 43 44 45 46 46 46 47 47 48 49 49 50 50 50 49 49 49 50 50 51 50 51 51 51 51 51 51 50 50 50 50 51 52
8 9 11 12 13 13 12 10 9 9 9 9 8 6 5 6 8 10 13 15 17 17 18 18 18 18 18 17 18 19 21 22 23 24 25 26 26 27 28 30 31 32 33 34 34 35 36 35 33 34 36 38 39 40 42 43 44 45 45 46 46 47 47 48 49 50 50 51 51 50 50 50 50 50 50 51 52 52 52 52 51 51 50 50 49 50 51 52
8 10 12 13 13 13 12 11 10 9 9 9 8 7 7 8 9 12 14 16 17 18 18 18 18 18 19 19 19 21 22 23 24 25 26 27 28 28 29 30 31 31 31 32 33 34 35 36 35 35 38 39 41 42 43 44 44 45 45 46 46 47 47 48 49 49 49 51 51 51 51 50 50 50 50 52 52 52 52 51 50 49 49 49 49 50 51 53
9 10 11 11 11 11 10 10 9 9 9 9 9 9 9 10 11 13 15 16 17 17 18 18 19 20 21 21 22 22 23 24 25 26 26 27 27 27 27 27 28 29 30 32 33 35 36 37 38 38 39 40 42 43 44 45 45 45 46 46 47 47 48 48 49 48 48 49 51 51 51 51 51 51 51 51 51 51 50 49 49 48 48 49 49 50 52 54
9 9 10 10 10 10 10 10 9 10 10 10 11 12 12 13 14 15 15 16 17 18 19 20 21 22 23 23 22 22 23 24 25 25 25 25 25 25 26 27 28 30 31 33 35 36 37 39 39 40 40 41 42 44 45 45 46 46 46 46 47 47 48 49 49 48 47 49 50 50 52 52 52 51 50 50 49 49 49 48 48 48 48 49 50 52 54 56
8 9 9 9 10 10 10 10 10 11 12 12 13 14 14 14 15 15 16 18 19 20 21 22 22 23 23 22 22 21 21 22 22 22 23 23 25 26 27 28 30 31 33 34 36 37 39 41 42 43 43 44 44 46 46 47 46 46 46 46 47 47 48 48 49 49 49 49 49 49 52 53 51 49 49 48 48 48 48 48 48 48 49 51 52 54 55 57
8 8 9 9 10 10 11 11 12 12 13 14 14 14 15 15 16 17 18 20 20 21 21 22 21 21 21 20 19 19 19 20 21 22 24 25 26 27 29 30 32 33 35 37 38 40 42 44 46 46 46 46 46 47 48 48 48 47 46 47 47 47 47 47 48 49 49 49 48 49 50 51 49 49 49 49 48 48 48 48 48 49 50 52 54 55 57 58
8 8 9 9 11 12 12 13 13 14 14 15 15 15 16 17 18 19 20 20 20 20 19 19 18 18 18 19 19 20 20 21 22 24 25 26 27 29 31 32 34 36 38 40 41 43 45 47 49 51 51 50 49 49 50 50 48 47 46 46 46 46 46 46 47 48 48 48 47 47 48 49 49 49 49 49 48 48 48 49 50 51 53 54 56 58 59 61
8 9 10 11 12 13 13 14 14 15 15 16 16 17 17 18 18 18 18 17 17 16 16 16 17 17 18 19 20 22 23 23 24 25 26 28 29 31 33 34 36 38 40 42 44 46 47 49 51 53 54 54 54 54 54 53 51 48 46 45 46 46 46 46 47 47 47 47 46 46 47 48 48 48 48 47 47 48 49 50 52 54 56 57 59 60 62 63
9 10 11 12 13 13 14 15 16 16 17 17 17 17 16 16 15 15 15 15 15 16 16 16 17 18 19 20 21 22 23 24 26 27 28 30 32 33 35 37 39 41 43 45 46 48 49 51 53 54 54 54 55 55 53 53 52 50 48 47 46 47 47 47 47 46 46 46 46 46 46 45 45 45 45 46 47 48 50 52 54 56 57 58 61 62 64 65
11 12 12 13 13 15 15 16 17 17 16 16 15 15 15 15 15 15 15 16 16 17 17 17 18 19 19 20 21 22 24 26 27 29 31 33 34 36 38 40 42 43 45 47 48 50 51 52 54 55 53 52 53 53 51 51 51 51 50 48 47 48 48 47 47 46 45 45 45 44 44 43 43 44 45 47 49 51 53 54 56 57 59 61 63 64 66 67
12 12 13 14 15 16 16 16 15 15 14 14 14 14 15 15 15 16 16 16 17 17 18 19 19 20 21 22 23 24 25 27 29 32 33 35 37 38 40 42 44 45 47 49 50 52 53 54 55 55 53 50 51 51 49 49 50 50 50 49 48 48 48 47 47 46 45 45 44 44 44 44 45 47 49 51 53 54 55 57 59 61 63 64 65 67 68 70
12 14 15 15 15 15 15 14 14 14 14 14 15 15 15 15 15 16 16 17 18 19 20 21 22 22 24 25 27 28 30 31 33 35 36 38 40 41 43 44 46 48 49 51 52 54 55 56 57 57 53 50 50 50 48 49 49 49 49 49 48 48 48 48 48 47 46 45 45 45 45 47 49 51 53 55 56 57 58 60 63 65 66 66 68 70 71 73
13 14 14 14 14 14 14 14 14 14 15 15 16 16 15 15 16 16 17 18 19 20 21 22 24 25 27 28 30 32 34 36 37 38 40 41 43 44 46 47 48 50 51 53 54 55 57 57 58 57 54 50 49 49 48 49 49 48 49 49 48 49 49 49 48 47 46 46 46 47 49 50 52 54 56 57 59 60 62 64 66 67 68 69 71 73 74 75
13 13 13 13 14 14 14 15 15 15 15 16 15 15 15 16 16 17 18 19 20 21 22 24 25 27 29 31 33 35 36 38 39 41 42 43 45 47 48 49 50 51 52 54 56 57 58 58 57 56 54 50 50 50 49 49 48 47 47 48 48 49 49 48 48 48 48 48 49 51 52 53 55 56 58 60 62 64 65 67 68 70 71 73 74 76 77 77
13 13 14 14 15 15 15 15 15 15 15 15 15 15 16 17 17 19 19 20 22 23 25 26 28 30 32 33 35 37 38 40 41 43 44 45 46 48 49 50 51 52 54 55 57 58 58 57 55 55 54 52 51 52 51 50 48 47 47 48 48 48 48 48 48 49 50 51 53 54 55 57 58 60 61 63 65 67 69 70 72 73 74 75 76 76 76 75
Wind_Direction
233 244 257 272 283 293 300 303 302 296 283 274 303 51 52 55 64 74 97 139 176 184 180 166 142 125 124 129 135 141 156 170 193 201 203 207 206 206 214 226 235 243 249 256 263 267 270 275 279 283 288 290 291 294 298 300 301 303 307 309 309 307 308 309 308 306 300 294 293 293 294 293 293 293 294 295 295 296 298 298 299 299 299 298 298 297 296 295
238 245 253 263 271 282 290 296 303 305 298 273 261 250 243 1 21 28 298 245 239 229 227 229 231 233 230 200 182 184 200 207 217 225 228 233 233 232 233 241 248 252 255 259 262 264 269 273 276 280 284 285 288 293 297 298 299 302 307 308 307 306 307 306 304 301 298 298 298 297 298 297 296 295 296 296 297 297 298 300 300 299 298 298 298 297 297 296
242 248 252 259 264 272 281 289 298 303 304 292 270 255 244 238 243 256 261 256 251 247 241 239 242 243 250 252 240 233 235 232 231 235 240 243 246 248 248 250 254 257 259 260 262 266 269 273 277 279 281 283 288 292 294 295 297 302 305 305 305 306 306 304 302 300 300 300 299 299 299 299 298 298 298 299 298 298 300 301 301 301 299 299 299 298 298 297
242 248 252 257 263 268 274 280 287 293 297 295 284 268 254 246 242 244 248 250 249 249 246 244 246 245 248 253 254 254 255 252 249 250 253 253 254 255 255 254 254 255 257 258 261 266 270 274 277 278 281 284 288 291 293 295 298 301 302 303 304 304 303 302 301 300 300 299 298 298 298 299 300 299 300 300 299 299 301 302 303 302 301 300 299 299 299 298
244 249 254 258 263 267 270 274 278 281 285 288 288 281 266 253 247 247 247 250 251 249 248 246 248 247 247 249 253 256 260 264 263 263 262 262 262 262 262 260 257 256 257 259 263 269 273 276 277 279 281 283 286 290 292 294 297 299 300 301 301 301 301 300 300 299 299 299 299 299 299 300 301 300 301 301 300 301 302 303 303 303 302 300 300 299 299 297
247 252 256 260 264 267 269 272 274 275 276 278 281 281 276 264 252 248 248 251 255 255 252 250 250 250 248 247 249 252 254 261 265 266 266 269 269 269 268 266 264 262 262 264 268 273 277 279 280 280 281 283 286 289 291 293 296 297 297 297 298 298 298 298 298 298 298 299 300 300 300 300 301 301 301 302 301 301 302 302 303 303 302 301 300 299 297 296
250 255 259 262 266 268 270 272 273 274 274 272 273 276 278 274 263 253 249 249 253 258 261 258 254 253 251 249 250 251 251 256 261 264 267 271 272 272 270 268 267 267 268 269 272 275 278 280 281 281 282 284 285 288 290 291 292 293 294 295 296 297 297 297 297 297 298 299 300 300 300 300 300 301 301 302 301 300 301 301 302 302 302 300 299 298 297 297
250 255 259 262 265 267 269 271 273 275 275 275 273 273 274 275 272 265 255 250 249 254 262 266 263 258 255 253 253 254 254 256 259 263 267 271 273 273 272 271 270 270 271 272 273 275 278 280 282 283 283 285 286 287 288 289 290 292 293 294 295 295 296 297 297 298 299 299 300 300 300 300 299 299 300 301 301 301 301 301 302 302 301 300 299 299 298 298
251 255 258 261 263 265 268 270 272 274 276 276 275 273 273 272 271 269 264 255 249 249 255 264 268 264 260 257 255 254 256 258 260 264 267 271 274 276 277 276 275 274 274 274 275 276 278 280 282 284 285 285 286 287 288 289 290 291 292 293 294 294 295 297 298 298 299 298 299 300 300 299 299 299 301 302 302 301 301 302 302 302 302 301 300 299 299 298
255 258 260 262 263 265 268 270 272 273 274 274 274 273 271 270 268 267 264 258 250 247 249 256 265 266 264 262 259 256 256 258 261 263 266 270 273 276 278 279 278 277 277 277 277 278 279 280 282 283 284 285 286 287 288 289 289 289 290 291 292 294 295 296 297 298 298 298 299 300 301 302 301 302 303 303 301 300 300 301 301 302 301 300 299 298 298 298
260 262 263 264 266 267 268 269 270 271 271 271 270 270 269 268 267 264 260 255 250 246 246 251 259 262 261 262 261 259 259 260 262 264 267 269 272 274 276 277 277 278 278 279 279 279 280 280 282 283 284 285 287 288 288 288 288 288 288 290 292 294 296 296 298 299 299 298 299 301 302 303 302 301 301 300 299 299 299 299 300 300 300 299 298 297 298 298
264 267 268 269 270 270 269 268 268 268 268 268 267 267 266 266 265 263 258 252 248 245 245 248 255 259 257 257 259 259 259 260 262 264 267 270 271 273 275 276 277 278 279 280 281 281 281 281 282 283 284 285 286 287 287 287 287 287 288 290 292 294 295 297 298 299 299 298 299 300 300 300 299 298 299 298 297 297 298 298 299 299 299 298 297 297 298 298
268 271 272 273 272 272 271 270 269 268 266 265 265 265 264 264 263 262 257 251 247 245 245 247 253 257 256 255 256 257 257 259 261 263 266 269 271 273 274 275 276 277 279 280 281 281 281 281 281 282 283 285 285 286 287 287 287 288 289 291 293 294 295 297 298 298 298 298 299 298 297 297 297 296 297 297 297 297 297 298 298 298 298 297 296 297 297 296
272 275 275 275 274 273 273 273 272 269 266 264 264 264 263 263 263 262 259 252 248 246 246 248 252 256 256 256 256 256 258 259 261 263 265 268 270 272 273 275 276 277 279 280 281 281 281 281 282 283 284 285 285 286 286 287 288 289 290 292 293 294 295 297 298 298 297 297 297 296 295 296 297 297 297 297 297 297 297 298 298 298 297 296 296 296 296 295
277 279 280 279 275 273 272 272 272 272 271 268 265 262 261 261 263 263 261 255 251 250 249 250 253 256 258 258 257 258 259 260 262 264 266 267 269 272 274 275 276 278 279 280 281 281 282 283 284 284 285 285 285 286 286 287 288 290 291 293 294 295 296 297 297 297 295 295 296 295 295 296 298 298 297 297 296 296 297 297 297 297 296 295 295 296 295 294
280 282 282 280 277 273 269 270 276 278 278 274 267 260 256 257 259 260 259 257 256 255 253 254 257 258 260 260 259 260 261 263 265 266 267 269 271 273 274 276 277 278 279 280 282 283 284 285 285 285 286 286 286 286 286 288 290 291 292 293 294 295 295 295 295 294 294 295 296 296 297 298 298 298 298 297 296 296 297 297 296 296 295 295 295 295 294 294
283 283 280 276 274 271 269 273 278 278 278 280 275 264 255 252 253 255 257 259 260 260 259 261 262 260 261 262 262 263 265 266 268 269 270 272 273 275 277 278 280 280 281 282 282 284 285 285 286 287 287 287 287 287 287 290 292 292 293 292 293 293 294 295 295 293 294 296 297 297 298 298 299 299 298 297 297 297 296 296 296 296 296 296 296 295 295 294
291 287 280 273 268 266 268 271 271 270 274 280 282 277 269 262 259 259 261 263 264 264 265 268 267 264 264 264 265 266 268 270 271 272 274 275 276 277 278 280 281 282 283 284 284 285 286 287 288 289 289 289 289 289 290 291 292 293 292 292 292 292 294 295 295 294 295 296 297 298 298 299 299 299 298 298 298 297 296 296 296 296 296 296 296 295 294 294
308 308 298 279 264 261 264 266 268 271 275 277 278 278 276 273 270 268 268 267 267 268 269 271 268 266 267 267 268 270 271 272 273 275 276 277 278 278 279 281 282 283 284 285 286 287 287 288 289 288 289 289 289 289 290 291 292 292 292 292 292 293 294 295 294 295 296 296 297 298 298 299 299 299 298 298 297 296 296 296 296 296 296 296 295 295 294 294
343 350 346 330 291 276 272 274 277 279 281 281 278 276 274 274 272 271 270 268 268 270 271 271 268 266 267 269 270 271 271 272 273 274 275 276 277 278 279 280 282 283 284 285 285 286 286 287 288 288 288 289 289 290 290 291 292 292 293 293 294 294 294 294 294 295 296 296 298 298 298 299 298 298 297 297 296 296 296 296 297 297 296 295 294 294 294 294
37 26 26 23 7 332 304 292 287 285 286 289 286 281 278 275 272 270 269 269 270 271 272 271 269 268 269 269 269 269 269 270 271 272 273 274 275 277 279 281 282 284 284 285 286 286 287 288 288 288 289 289 289 290 291 291 292 293 294 294 295 295 295 295 296 297 297 298 299 299 299 299 298 297 297 297 296 296 296 296 297 296 295 294 294 294 294 294
6 350 351 346 337 324 309 298 292 290 293 296 293 288 285 282 278 275 272 271 271 273 274 273 270 269 269 269 269 267 267 268 269 270 271 272 273 276 278 280 283 285 286 286 287 287 287 287 287 288 289 290 290 291 292 292 293 294 295 296 296 296 296 296 297 298 298 299 299 298 298 298 298 297 297 297 297 297 297 297 297 296 296 296 296 295 294 294
342 337 336 333 329 321 311 303 299 297 294 292 289 286 287 288 285 282 279 276 275 274 274 274 274 272 271 270 269 268 267 268 268 269 271 273 274 276 277 278 281 284 287 288 288 288 288 288 289 290 291 292 293 293 293 294 295 296 296 296 297 297 297 297 298 298 298 298 298 298 298 298 297 297 297 297 297 298 297 297 297 297 297 297 296 295 294 294
10 2 355 346 337 327 318 309 304 300 297 294 294 293 294 293 292 290 286 284 281 278 276 276 276 276 275 274 273 272 271 271 271 272 275 277 278 279 280 280 281 283 286 287 289 290 291 291 292 292 293 294 294 294 295 295 296 297 297 297 297 297 297 298 298 298 298 299 299 299 298 298 298 298 298 298 298 299 298 298 298 298 297 296 295 295 295 294
5 350 341 331 323 316 311 306 304 302 301 300 298 298 297 296 297 295 292 291 289 285 282 280 279 279 279 278 278 277 275 274 274 275 277 278 280 281 282 282 283 284 286 287 290 292 293 294 295 295 296 296 296 296 296 296 297 297 297 297 297 298 298 298 298 298 298 298 299 299 298 298 299 299 298 299 300 300 299 299 298 298 297 296 296 295 295 295
331 325 320 315 312 309 307 306 304 302 301 300 298 297 298 298 299 297 294 294 293 290 286 284 282 280 279 279 280 279 277 277 276 276 276 277 279 281 283 284 285 286 288 290 292 293 294 296 296 297 297 297 297 297 297 297 298 297 298 298 298 298 298 298 298 298 298 298 299 299 299 299 301 301 300 300 301 300 299 299 298 297 296 296 296 296 296 296
323 319 315 312 308 306 305 304 301 300 300 298 297 299 301 302 302 300 296 294 292 291 289 286 284 283 283 283 283 281 280 280 279 279 281 282 283 284 286 287 289 290 291 293 293 294 295 296 296 297 297 297 297 298 298 299 299 298 298 298 298 298 298 298 298 298 298 299 301 301 300 301 302 302 302 302 301 299 299 298 297 297 297 297 298 298 297 297
319 314 310 307 304 303 301 300 299 299 299 298 298 299 300 303 304 303 300 295 290 288 286 285 286 286 286 286 286 285 285 285 285 286 287 287 288 289 290 291 293 294 295 295 295 296 296 296 297 298 298 299 299 299 300 300 299 299 299 298 298 298 298 299 299 299 300 301 303 303 302 302 302 302 302 301 300 299 298 297 297 298 298 299 299 298 298 298
314 310 307 304 303 302 300 300 300 299 298 297 298 299 303 309 312 314 313 306 300 294 289 286 287 289 290 290 290 290 290 290 290 292 292 292 293 294 295 296 296 296 297 297 296 297 297 298 299 300 300 301 301 301 301 300 300 299 299 299 299 299 299 300 301 302 303 304 304 304 303 302 302 301 300 300 299 298 297 297 298 298 299 299 299 299 299 299
312 309 307 305 304 303 301 301 300 298 296 296 298 302 310 318 323 328 327 321 318 312 302 293 288 287 289 292 294 294 295 295 296 297 297 297 297 297 297 297 297 297 298 298 299 300 300 301 302 302 302 302 302 302 301 301 300 300 300 301 301 302 302 303 304 304 304 304 304 304 302 302 301 301 300 299 298 298 298 298 299 300 300 300 300 300 300 299
315 313 311 309 308 307 306 304 302 298 295 295 298 306 317 328 335 340 340 335 333 330 326 320 310 302 298 297 299 301 302 302 303 303 302 301 300 300 299 299 299 299 300 301 302 302 302 303 303 303 303 303 303 303 302 302 302 303 303 303 304 304 304 304 304 304 304 304 304 303 302 301 301 300 299 299 298 299 299 300 301 301 301 301 300 300 299 298
319 317 316 317 319 320 319 316 312 308 304 303 306 312 321 331 342 350 356 355 352 348 342 336 330 324 317 312 309 308 308 307 307 306 304 303 303 302 302 302 301 300 300 300 300 301 303 304 304 304 304 304 304 304 305 305 305 305 306 306 306 306 305 304 304 304 304 304 303 302 302 301 300 300 300 299 299 299 300 301 301 300 300 299 299 298 298 297
321 322 329 338 343 346 346 344 342 339 333 327 322 317 314 319 339 356 6 6 359 353 345 335 329 324 319 316 313 310 309 308 309 308 306 306 305 305 304 304 303 303 303 302 301 302 303 305 305 306 307 307 307 307 307 307 307 307 307 307 307 307 305 305 305 304 304 304 303 303 302 301 301 301 300 299 298 299 299 299 299 298 298 298 299 298 298 297
329 341 356 4 8 12 15 15 15 14 5 345 329 319 308 297 317 350 1 0 353 349 345 336 329 325 321 317 314 312 310 310 309 309 309 308 308 308 307 307 307 307 307 306 306 305 306 309 310 310 311 311 310 309 308 308 308 307 308 307 307 306 305 305 305 305 304 303 303 303 302 301 301 301 300 299 299 299 298 298 298 298 299 299 298 298 297 297
352 5 5 6 11 17 20 19 17 12 0 341 328 322 307 280 290 327 342 344 343 342 339 333 328 325 322 318 315 314 313 312 311 310 310 310 310 310 311 311 310 310 309 308 308 307 307 311 313 312 312 312 311 310 310 309 309 308 308 308 307 306 305 305 305 304 304 303 303 303 302 301 301 300 300 300 300 299 299 299 299 299 299 299 298 298 297 297
12 6 3 3 5 8 9 8 4 360 353 342 332 324 305 281 286 304 319 326 332 333 331 329 325 323 321 319 317 317 316 315 314 314 313 312 312 313 313 313 312 312 312 311 311 310 308 311 314 314 314 313 312 311 310 310 309 308 308 307 306 306 305 304 304 304 303 303 303 303 301 301 301 300 300 301 300 299 299 300 300 300 300 299 299 298 298 297
11 12 18 20 19 19 15 10 4 357 353 348 342 334 310 290 290 296 306 315 322 325 324 325 323 321 322 321 320 320 318 317 317 317 317 317 317 316 315 315 315 315 314 313 313 313 313 315 317 317 316 314 312 311 310 309 308 307 307 306 306 306 305 305 304 304 304 303 303 302 301 301 300 300 301 301 300 300 301 301 302 301 300 300 299 299 297 296
20 30 37 39 42 41 37 33 27 17 10 4 360 351 326 305 297 298 306 314 319 323 324 325 325 324 325 325 323 322 321 320 320 320 320 320 319 319 318 317 317 316 316 316 317 317 318 318 320 320 317 315 314 312 311 310 309 309 308 308 308 307 306 306 305 305 304 303 303 303 302 302 301 301 301 301 302 302 302 303 302 301 301 300 300 298 295 293
42 46 49 50 50 48 44 41 36 28 23 17 10 359 339 322 312 309 314 318 322 325 327 328 329 327 327 328 327 325 323 322 322 322 321 321 320 320 320 320 320 320 320 321 320 320 320 320 322 323 320 318 318 316 315 313 312 311 311 310 309 308 307 306 305 305 305 304 303 303 303 302 302 302 302 303 303 303 302 302 301 301 301 300 298 295 292 289
59 54 52 48 44 41 36 27 22 16 9 2 356 349 339 329 323 321 322 325 328 329 330 330 330 328 327 327 328 327 325 324 324 323 323 322 322 323 323 323 323 323 323 323 323 323 322 321 323 324 323 322 321 319 317 315 313 313 312 312 310 309 307 306 305 305 305 303 303 303 303 302 302 303 304 303 303 302 302 302 302 301 300 298 295 292 290 289
62 52 44 35 28 25 19 12 7 1 354 350 346 342 338 335 332 331 331 331 331 331 330 329 328 328 327 328 329 329 327 327 326 326 326 326 327 327 327 327 326 326 326 326 326 326 324 324 325 325 325 325 323 320 318 316 315 314 314 312 310 309 308 307 307 306 305 303 303 303 302 302 304 304 304 302 302 301 301 301 300 298 295 294 292 292 292 292
52 39 29 19 13 8 5 1 356 351 348 347 345 342 342 340 337 335 333 331 331 331 330 329 329 329 330 331 332 332 332 333 331 331 332 333 332 331 330 329 329 329 328 328 328 328 326 326 326 326 328 328 326 322 320 318 317 316 315 313 311 310 310 309 309 308 306 305 304 303 302 304 305 304 302 300 300 299 299 297 295 294 293 293 293 292 293 293
34 23 14 6 360 357 356 354 351 349 349 348 347 344 343 340 337 334 332 331 332 332 332 332 333 335 337 339 341 342 342 342 339 337 337 336 334 333 332 331 331 330 329 329 329 329 328 328 327 326 328 329 326 322 320 319 318 318 316 314 313 313 312 311 309 308 306 305 304 302 302 303 303 302 301 300 299 298 297 295 294 294 294 293 293 293 294 295
17 10 4 356 353 354 354 353 352 351 350 348 345 342 339 336 335 334 334 334 336 338 341 343 346 349 349 349 350 349 347 345 343 340 338 336 335 334 333 332 331 331 330 330 329 329 330 330 328 326 327 327 324 321 320 319 319 318 316 315 314 313 312 310 308 306 305 305 304 302 302 302 302 301 301 300 299 297 296 295 295 295 295 296 296 297 298 299
4 1 357 353 352 354 355 354 352 349 346 343 341 339 338 338 339 342 344 348 352 356 360 1 359 359 356 353 351 349 346 344 343 339 337 336 335 334 333 332 331 331 330 330 329 329 329 330 328 327 328 327 324 323 322 321 320 318 317 317 315 313 311 310 308 307 306 306 305 303 302 303 302 301 301 300 299 298 297 297 297 298 298 299 299 300 300 300
357 357 356 354 354 355 353 351 346 343 343 343 344 345 348 353 358 3 7 9 10 10 8 6 2 359 357 353 350 347 344 342 340 338 337 336 334 333 332 331 331 330 329 329 328 327 328 328 328 328 329 327 324 323 322 321 319 318 318 317 315 313 311 310 309 308 307 306 305 304 303 303 302 301 301 300 299 298 297 298 298 298 299 299 300 301 301 301
354 355 355 354 353 351 348 345 344 346 350 355 360 5 10 15 18 20 19 15 12 10 7 5 2 358 355 351 347 345 342 340 338 337 336 334 333 332 331 330 330 329 328 327 327 326 326 327 327 327 328 326 322 322 321 319 318 318 318 317 315 313 312 311 310 308 307 307 307 306 304 303 302 300 299 298 297 297 298 299 299 300 301 302 302 303 303 304
354 353 352 351 350 348 348 350 355 2 10 16 21 24 26 25 23 21 19 14 11 7 4 2 359 355 351 348 344 342 340 339 337 335 334 332 331 330 330 329 328 327 326 326 326 326 326 326 326 326 327 325 322 321 321 319 318 318 318 316 314 313 312 311 310 310 309 309 309 307 305 304 302 301 300 300 301 302 302 303 304 304 305 305 305 305 306 307
352 350 349 351 354 357 3 10 17 23 28 30 31 30 29 26 22 19 16 12 9 5 0 357 353 349 347 343 341 339 337 336 334 333 331 330 328 327 327 327 327 326 326 326 326 326 326 326 326 326 327 325 322 322 321 319 318 318 316 315 314 313 313 312 312 312 312 312 310 308 307 306 305 305 306 306 306 307 307 307 307 306 307 307 307 308 308 308
352 354 357 5 13 19 25 31 34 35 36 35 33 31 28 25 21 17 12 8 4 360 355 351 347 345 342 339 338 337 335 333 332 330 329 328 328 327 326 326 326 327 327 327 327 326 326 327 326 326 326 325 322 322 320 319 318 317 316 316 315 314 314 313 314 314 314 312 310 309 309 308 309 309 309 309 309 308 308 308 308 308 309 309 309 309 309 309
7 15 21 29 35 38 39 41 42 40 39 37 34 30 25 21 16 11 7 2 357 353 349 345 343 341 339 337 336 334 332 330 329 329 328 327 327 327 327 326 327 327 327 327 327 327 327 327 326 326 326 325 322 321 320 319 319 319 317 317 316 315 315 315 315 314 312 310 310 310 310 311 311 310 310 309 309 309 309 309 309 310 310 310 310 309 309 309
34 39 41 45 48 47 46 47 46 43 40 35 30 25 20 15 9 3 359 355 350 347 344 341 339 337 336 334 333 331 330 329 328 328 327 327 327 328 328 328 327 327 328 327 327 327 327 327 327 326 326 325 323 322 322 321 321 320 318 317 316 315 315 316 315 313 312 312 313 313 313 312 312 311 310 310 310 310 310 311 310 310 311 311 311 310 310 310